Claremore, OK

1:54 AM CST on February 06, 2016 (GMT -0600)
Claremore Regional

Weather History for KGCM - July, 2013

Change the Weather History Date:

Wednesday, July 24, 2013

  Actual Average (KTUL) Record (KTUL)
Temperature  
Mean Temperature 77 °F 84 °F  
Max Temperature 86 °F 94 °F 110 °F (1934)
Min Temperature 68 °F 73 °F 60 °F (1927)
Cooling Degree Days 12 19  
Month to date cooling degree days 423  
Year to date cooling degree days 1036  
Since 1 June cooling degree days 802  
Growing Degree Days 27 (Base 50)    
Moisture  
Dew Point 68 °F    
Average Humidity 78    
Maximum Humidity 100    
Minimum Humidity 55    
Precipitation  
Precipitation 0.86 in 0.10 in 1.95 in (1973)
Month to date precipitation 2.70  
Year to date precipitation 23.92  
Sea Level Pressure  
Sea Level Pressure 30.00 in    
Wind  
Wind Speed 7 mph (NE)    
Max Wind Speed 18 mph    
Max Gust Speed 29 mph    
Visibility 10 miles    
Events Rain , Thunderstorm    
T = Trace of Precipitation, MM = Missing Value Source: NWS Daily Summary

Daily Weather History Graph

Daily Weather History Graph

Search for Another Location

Airport or City:

Trip Planner

Search our weather history database for the weather conditions in past years. The results will help you decide how hot, cold, wet, or windy it might be!

Date:

Astronomy

Jul. 24, 2013 Rise Set
Actual Time 6:22 AM CDT 8:33 PM CDT
Civil Twilight 5:53 AM CDT 9:02 PM CDT
Nautical Twilight 5:18 AM CDT 9:38 PM CDT
Astronomical Twilight 4:39 AM CDT 10:16 PM CDT
Moon 9:47 PM CDT (7/24) 8:38 AM CDT (7/24)
Length of Visible Light 15h 09m
Length of Day
14h 11m
Waning Gibbous, 94% of the Moon is Illuminated
Jul 24
Waning Gibbous
Jul 29
Last Quarter
Aug 6
New
Aug 14
First Quarter
Aug 20
Full

Hourly Weather History & Observations

Time (CDT) Temp. Heat Index Dew Point Humidity Pressure Visibility Wind Dir Wind Speed Gust Speed Precip Events Conditions
12:35 AM 68.0 °F - 66.2 °F 94% 29.98 in 2.5 mi NW 11.5 mph 28.8 mph 0.64 in Rain , Thunderstorm Heavy Thunderstorms and Rain
12:55 AM 68.0 °F - 66.2 °F 94% 29.95 in 10.0 mi ENE 11.5 mph - 0.67 in Rain , Thunderstorm Light Thunderstorms and Rain
1:15 AM 68.0 °F - 66.2 °F 94% 29.97 in 10.0 mi NE 5.8 mph 16.1 mph 0.01 in Rain , Thunderstorm Light Thunderstorms and Rain
1:35 AM 68.0 °F - 66.2 °F 94% 29.97 in 5.0 mi ENE 8.1 mph - 0.04 in Rain , Thunderstorm Thunderstorms and Rain
1:55 AM 68.0 °F - 68.0 °F 100% 29.94 in 10.0 mi ESE 11.5 mph - 0.08 in Rain , Thunderstorm Thunderstorms and Rain
2:15 AM 69.8 °F - 68.0 °F 94% 29.95 in 10.0 mi East 13.8 mph - 0.02 in Rain , Thunderstorm Light Thunderstorms and Rain
2:35 AM 69.8 °F - 68.0 °F 94% 29.99 in 10.0 mi SSE 6.9 mph - 0.05 in Rain , Thunderstorm Thunderstorms and Rain
2:55 AM 69.8 °F - 69.8 °F 100% 29.96 in 7.0 mi SSE 15.0 mph - 0.09 in Rain , Thunderstorm Rain
3:15 AM 69.8 °F - 68.0 °F 94% 29.96 in 10.0 mi SSE 13.8 mph 20.7 mph 0.02 in Rain Light Rain
3:35 AM 69.8 °F - 68.0 °F 94% 29.91 in 10.0 mi ESE 18.4 mph 28.8 mph 0.02 in Rain Light Rain
3:55 AM 69.8 °F - 68.0 °F 94% 29.92 in 10.0 mi SE 11.5 mph 25.3 mph 0.02 in Rain Light Rain
4:15 AM 69.8 °F - 68.0 °F 94% 29.92 in 10.0 mi SSE 11.5 mph 17.3 mph N/A   Clear
4:35 AM 69.8 °F - 68.0 °F 94% 29.95 in 10.0 mi Calm Calm - N/A   Clear
4:55 AM 69.8 °F - 68.0 °F 94% 29.95 in 10.0 mi SW 5.8 mph - N/A   Clear
5:35 AM 69.8 °F - 68.0 °F 94% 29.96 in 10.0 mi SW 6.9 mph - N/A   Clear
5:55 AM 69.8 °F - 68.0 °F 94% 29.97 in 10.0 mi WSW 8.1 mph - N/A   Clear
6:15 AM 69.8 °F - 68.0 °F 94% 29.98 in 10.0 mi WSW 6.9 mph - N/A   Clear
6:35 AM 69.8 °F - 66.2 °F 88% 30.00 in 10.0 mi WSW 8.1 mph - N/A   Scattered Clouds
6:55 AM 69.8 °F - 66.2 °F 88% 29.98 in 10.0 mi West 4.6 mph - N/A   Clear
7:15 AM 68.0 °F - 66.2 °F 94% 29.97 in 10.0 mi WSW 3.5 mph - N/A   Clear
7:35 AM 68.0 °F - 66.2 °F 94% 29.98 in 10.0 mi Calm Calm - N/A   Clear
7:55 AM 68.0 °F - 66.2 °F 94% 29.99 in 10.0 mi Calm Calm - N/A   Clear
8:15 AM 68.0 °F - 66.2 °F 94% 29.99 in 10.0 mi Calm Calm - N/A   Clear
8:35 AM 68.0 °F - 68.0 °F 100% 30.00 in 10.0 mi Calm Calm - N/A   Clear
8:55 AM 69.8 °F - 68.0 °F 94% 30.00 in 10.0 mi North 4.6 mph - N/A   Clear
9:15 AM 69.8 °F - 68.0 °F 94% 30.01 in 10.0 mi NNE 4.6 mph - N/A   Clear
9:35 AM 71.6 °F - 68.0 °F 88% 30.01 in 10.0 mi North 5.8 mph - N/A   Clear
9:55 AM 73.4 °F - 68.0 °F 83% 30.01 in 10.0 mi NNE 8.1 mph - N/A   Clear
10:15 AM 73.4 °F - 68.0 °F 83% 30.02 in 10.0 mi NNW 8.1 mph - N/A   Mostly Cloudy
10:35 AM 75.2 °F - 68.0 °F 78% 30.02 in 10.0 mi NNE 6.9 mph - N/A   Mostly Cloudy
10:55 AM 75.2 °F - 68.0 °F 78% 30.03 in 10.0 mi North 5.8 mph - N/A   Scattered Clouds
11:15 AM 77.0 °F - 68.0 °F 74% 30.03 in 10.0 mi North 6.9 mph - N/A   Scattered Clouds
11:35 AM 78.8 °F - 68.0 °F 69% 30.03 in 10.0 mi NNW 5.8 mph - N/A   Scattered Clouds
11:55 AM 78.8 °F - 68.0 °F 69% 30.03 in 10.0 mi North 4.6 mph - N/A   Scattered Clouds
12:15 PM 78.8 °F - 68.0 °F 69% 30.03 in 10.0 mi North 5.8 mph - N/A   Scattered Clouds
12:35 PM 78.8 °F - 68.0 °F 69% 30.03 in 10.0 mi ENE 5.8 mph - N/A   Scattered Clouds
12:55 PM 80.6 °F 83.2 °F 68.0 °F 65% 30.03 in 10.0 mi North 4.6 mph - N/A   Scattered Clouds
1:15 PM 80.6 °F 83.2 °F 68.0 °F 65% 30.03 in 10.0 mi North 6.9 mph - N/A   Mostly Cloudy
1:35 PM 80.6 °F 83.2 °F 68.0 °F 65% 30.03 in 10.0 mi North 6.9 mph - N/A   Mostly Cloudy
1:55 PM 82.4 °F 85.4 °F 68.0 °F 62% 30.02 in 10.0 mi North 9.2 mph - N/A   Scattered Clouds
2:15 PM 82.4 °F 85.4 °F 68.0 °F 62% 30.02 in 10.0 mi NE 5.8 mph - N/A   Scattered Clouds
2:35 PM 84.2 °F 87.3 °F 68.0 °F 58% 30.02 in 10.0 mi NNE 6.9 mph - N/A   Scattered Clouds
2:55 PM 82.4 °F 85.4 °F 68.0 °F 62% 30.02 in 10.0 mi North 3.5 mph - N/A   Scattered Clouds
3:15 PM 86.0 °F 89.4 °F 68.0 °F 55% 30.01 in 10.0 mi NNW 8.1 mph - N/A   Clear
3:35 PM 86.0 °F 89.4 °F 68.0 °F 55% 30.01 in 10.0 mi NE 6.9 mph - N/A   Scattered Clouds
3:55 PM 84.2 °F 87.3 °F 68.0 °F 58% 30.01 in 10.0 mi NE 5.8 mph - N/A   Scattered Clouds
4:15 PM 86.0 °F 89.4 °F 68.0 °F 55% 30.01 in 10.0 mi ENE 6.9 mph - N/A   Mostly Cloudy
4:35 PM 86.0 °F 89.4 °F 68.0 °F 55% 30.00 in 5.0 mi NE 6.9 mph - N/A   Haze
4:55 PM 86.0 °F 89.4 °F 68.0 °F 55% 30.00 in 10.0 mi NNE 6.9 mph - N/A   Scattered Clouds
5:15 PM 86.0 °F 89.4 °F 68.0 °F 55% 30.00 in 10.0 mi NE 4.6 mph - N/A   Scattered Clouds
5:35 PM 86.0 °F 89.4 °F 68.0 °F 55% 30.00 in 10.0 mi NNE 4.6 mph - N/A   Clear
5:55 PM 86.0 °F 89.4 °F 68.0 °F 55% 29.99 in 10.0 mi ENE 6.9 mph - N/A   Scattered Clouds
6:15 PM 84.2 °F 87.3 °F 68.0 °F 58% 29.99 in 10.0 mi NE 5.8 mph - N/A   Clear
6:35 PM 86.0 °F 89.4 °F 68.0 °F 55% 29.98 in 10.0 mi NE 5.8 mph - N/A   Clear
6:55 PM 86.0 °F 89.4 °F 68.0 °F 55% 29.98 in 10.0 mi NE 6.9 mph - N/A   Scattered Clouds
7:15 PM 86.0 °F 89.4 °F 68.0 °F 55% 29.98 in 10.0 mi ENE 6.9 mph - N/A   Clear
7:35 PM 84.2 °F 87.3 °F 68.0 °F 58% 29.99 in 10.0 mi NE 6.9 mph - N/A   Clear
7:55 PM 82.4 °F 85.4 °F 68.0 °F 62% 29.99 in 10.0 mi NE 4.6 mph - N/A   Clear
8:15 PM 82.4 °F 86.3 °F 69.8 °F 66% 30.00 in 10.0 mi East 3.5 mph - N/A   Clear
8:35 PM 80.6 °F 83.9 °F 69.8 °F 70% 30.00 in 10.0 mi NE 3.5 mph - N/A   Clear
8:55 PM 78.8 °F - 69.8 °F 74% 30.00 in 10.0 mi NE 3.5 mph - N/A   Clear
9:15 PM 77.0 °F - 69.8 °F 78% 30.01 in 10.0 mi Calm Calm - N/A   Clear
9:35 PM 75.2 °F - 69.8 °F 83% 30.01 in 10.0 mi NNE 3.5 mph - N/A   Clear
10:15 PM 73.4 °F - 69.8 °F 88% 30.03 in 10.0 mi Calm Calm - N/A   Clear
10:35 PM 73.4 °F - 69.8 °F 88% 30.03 in 10.0 mi Calm Calm - N/A   Clear
10:55 PM 71.6 °F - 69.8 °F 94% 30.04 in 10.0 mi Calm Calm - N/A   Clear
11:15 PM 71.6 °F - 69.8 °F 94% 30.05 in 10.0 mi Calm Calm - N/A   Clear
11:35 PM 71.6 °F - 69.8 °F 94% 30.05 in 10.0 mi Calm Calm - N/A   Clear
11:55 PM 71.6 °F - 68.0 °F 88% 30.05 in 10.0 mi Calm Calm - N/A   Clear